User: anonymous   Login
Location: Ostrava
(49.8330°N, 18.2830°E)
Time: 06:58:22
(UTC+01:00)
Language:

Explorer 7 - Orbit

View from above orbital plane
View from above orbital plane
View from above satellite
View from above satellite

Ground track
Ground track

The orbit data is extracted from the following two-line orbital elements,

1 00022U 59009A   17058.84518033  .00001011  00000-0  10007-3 0  9994
2 00022  50.2860 354.4434 0142646 336.1185  23.3188 14.93993513 45005
Epoch (UTC): 27 February 2017 20:17:03
Eccentricity: 0.0142646
inclination: 50.2860°
perigee height: 486 km
apogee height: 685 km
right ascension of ascending node: 354.4434°
argument of perigee: 336.1185°
revolutions per day: 14.93993513
mean anomaly at epoch: 23.3188°
orbit number at epoch: 4500

The dashed part of the orbit path shows where the satellite is in the earth's shadow,  

DLR